Probability
13 13 10 19 13 16 19 16 6 3 0 0 0 0 0 0 0 0 0 0 0 0 0 0 0 0 0 0 0 0 0 0 0 0 0 0 0 0 0 0 0 0 0
13 10 6 13 10 10 10 13 10 0 0 0 0 0 0 0 0 0 0 0 0 0 0 0 0 0 0 0 0 0 0 0 0 0 0 0 0 0 0 0 0 0 0
3 6 3 10 6 3 3 3 0 0 0 0 0 0 0 0 0 0 0 0 0 0 0 0 0 0 0 0 0 0 0 0 0 0 0 0 0 0 0 0 0 0 0
3 6 0 3 3 0 0 0 0 0 0 0 0 0 0 0 0 0 0 0 0 0 0 0 0 0 0 3 0 3 0 3 3 0 0 0 0 0 0 0 0 0 0
0 3 3 0 0 0 0 0 0 0 0 0 0 0 0 0 0 0 0 0 0 0 0 0 0 0 0 0 3 6 3 6 0 3 3 0 0 0 0 0 0 0 0
0 0 3 0 3 0 0 0 0 0 0 0 0 0 0 0 0 0 0 0 0 0 0 0 0 0 0 0 0 6 6 6 3 0 0 0 0 0 0 0 0 0 0
0 0 0 0 0 0 0 0 0 0 0 0 0 0 0 0 0 0 0 0 0 0 0 0 0 0 0 0 0 0 6 6 3 3 0 0 0 0 0 0 0 0 0
0 0 0 0 0 3 0 0 0 0 0 0 0 0 0 0 0 0 0 0 0 0 0 0 0 0 0 0 0 0 0 6 3 3 3 0 0 0 0 0 0 0 0
0 0 0 0 0 0 3 0 0 0 0 0 0 0 0 0 0 0 0 0 0 0 0 0 0 0 0 0 0 0 0 0 0 0 0 0 0 0 0 0 0 0 0
0 0 0 0 0 0 0 0 0 0 0 0 0 0 0 0 0 0 0 0 0 0 0 0 0 0 0 0 0 0 0 0 0 0 0 3 3 0 0 0 0 0 0
0 0 0 0 0 0 0 0 0 0 0 0 0 0 0 0 0 0 0 0 0 0 0 0 0 0 0 0 0 0 0 0 0 0 0 0 0 0 0 0 0 0 0
0 0 0 0 0 0 0 0 0 0 0 0 0 0 0 0 0 0 0 0 0 0 0 0 0 0 0 0 0 0 0 0 0 0 0 0 0 0 0 0 0 0 0
0 0 0 0 0 0 0 0 0 0 0 0 0 0 0 0 0 0 0 0 0 0 0 0 0 0 0 0 0 0 0 0 0 0 0 0 0 0 0 0 0 0 0
0 0 0 0 0 0 0 0 0 0 0 0 0 0 0 0 0 0 0 0 0 0 0 0 0 0 0 0 0 0 0 0 0 0 0 0 0 0 0 0 0 0 0
0 0 0 0 0 0 0 0 0 0 0 0 0 0 0 0 0 0 0 0 0 0 0 0 0 0 0 0 0 0 0 0 0 0 0 0 0 0 0 0 0 0 0
0 0 0 0 0 0 0 0 0 0 0 0 0 0 0 0 0 0 0 0 0 0 0 0 0 0 0 0 0 0 0 0 0 0 0 0 0 0 0 0 0 0 0
0 0 0 0 0 0 0 0 0 0 0 0 0 0 0 0 0 0 0 0 0 0 0 0 0 0 0 0 0 0 0 0 0 0 0 0 0 0 0 0 0 0 0
0 0 0 0 0 0 0 0 0 0 0 0 0 0 0 0 0 0 0 0 0 0 0 0 0 0 0 0 0 0 0 0 0 0 0 0 0 0 0 0 0 0 0
0 0 0 0 0 0 0 0 0 0 0 0 0 0 0 0 0 0 0 0 0 0 0 0 0 0 0 0 0 0 0 0 0 0 0 0 0 0 0 0 0 0 0
0 0 0 0 0 0 0 0 0 0 0 0 0 0 0 0 0 0 0 0 0 0 0 0 0 0 0 0 0 0 0 0 0 0 0 0 0 0 0 0 0 0 0
0 0 0 0 0 0 0 0 0 0 0 0 0 0 0 0 0 0 0 0 0 0 0 0 0 0 0 0 0 0 0 0 0 0 0 0 0 0 0 0 0 0 0
0 0 0 0 0 0 0 0 0 0 0 0 0 0 0 0 0 0 0 0 0 0 0 0 0 0 0 0 0 0 0 0 0 0 0 0 0 0 0 0 0 0 0
0 0 0 0 0 0 0 0 0 0 0 0 0 0 0 0 0 0 0 0 0 0 0 0 0 0 0 0 0 0 0 0 0 0 0 0 0 0 0 0 0 0 0
0 0 0 0 0 0 0 0 0 0 0 0 0 0 0 0 0 0 0 0 0 0 0 0 0 0 0 0 0 0 0 0 0 0 0 0 0 0 0 0 0 0 0
0 0 0 0 0 0 0 0 0 0 0 0 0 0 0 0 0 0 0 0 0 0 0 0 0 0 0 0 0 0 0 0 0 0 0 0 0 0 0 0 0 0 0
0 0 0 0 0 0 0 0 0 0 0 0 0 0 0 0 0 0 0 0 0 0 0 0 0 0 0 0 0 0 0 0 0 0 0 0 0 0 0 0 0 0 0
Height
5820 5820 5820 5820 5821 5821 5822 5822 5822 5822 5822 5822 5822 5822 5822 5822 5821 5821 5821 5821 5821 5821 5820 5820 5819 5819 5818 5818 5817 5816 5816 5815 5814 5813 5811 5810 5809 5808 5807 5805 5804 5803 5802
5812 5813 5812 5813 5813 5813 5813 5814 5814 5814 5814 5814 5814 5814 5814 5814 5814 5814 5814 5813 5813 5813 5813 5813 5812 5812 5811 5810 5810 5809 5808 5807 5806 5805 5804 5803 5802 5801 5799 5798 5797 5796 5795
5804 5804 5805 5804 5805 5804 5805 5805 5806 5806 5805 5806 5806 5805 5805 5805 5805 5805 5805 5805 5805 5805 5805 5805 5804 5804 5803 5803 5802 5801 5801 5800 5799 5798 5797 5795 5794 5793 5792 5790 5789 5788 5787
5795 5795 5796 5796 5796 5796 5796 5796 5797 5797 5797 5797 5797 5796 5796 5796 5797 5797 5796 5796 5796 5796 5796 5796 5795 5795 5795 5794 5794 5793 5792 5792 5791 5790 5789 5788 5786 5785 5783 5782 5781 5780 5779
5786 5786 5786 5787 5787 5787 5787 5787 5787 5787 5787 5787 5787 5787 5787 5787 5787 5787 5787 5787 5787 5787 5787 5787 5786 5785 5785 5785 5785 5784 5783 5783 5782 5781 5780 5779 5778 5776 5775 5774 5773 5771 5770
5777 5776 5777 5777 5777 5777 5777 5777 5776 5776 5776 5776 5776 5776 5776 5776 5776 5776 5776 5777 5777 5777 5777 5777 5776 5776 5775 5775 5775 5774 5774 5773 5773 5772 5771 5770 5769 5767 5766 5765 5764 5763 5762
5766 5766 5766 5766 5766 5766 5766 5766 5765 5765 5765 5765 5764 5765 5765 5765 5765 5766 5766 5766 5766 5766 5766 5766 5766 5766 5765 5765 5765 5764 5764 5764 5763 5762 5761 5760 5759 5758 5756 5756 5755 5754 5752
5756 5756 5756 5756 5755 5755 5755 5754 5754 5754 5753 5753 5753 5752 5753 5754 5754 5755 5755 5755 5755 5755 5756 5755 5755 5755 5755 5755 5755 5754 5754 5753 5752 5752 5751 5750 5749 5747 5746 5746 5745 5744 5743
5745 5745 5745 5745 5744 5744 5743 5743 5742 5741 5741 5740 5740 5739 5740 5742 5743 5744 5744 5744 5744 5744 5744 5745 5744 5744 5744 5744 5744 5744 5743 5743 5742 5741 5740 5739 5738 5737 5736 5735 5735 5734 5733
5735 5735 5734 5734 5733 5732 5732 5731 5730 5729 5728 5728 5728 5727 5728 5728 5730 5731 5733 5733 5733 5733 5733 5733 5733 5733 5733 5732 5732 5732 5732 5731 5730 5730 5729 5728 5727 5726 5725 5724 5723 5722 5722
5725 5725 5724 5724 5723 5722 5721 5720 5719 5718 5717 5717 5717 5717 5717 5717 5717 5719 5721 5721 5721 5721 5721 5721 5721 5721 5721 5720 5720 5720 5720 5719 5718 5718 5717 5716 5716 5715 5713 5712 5711 5710 5710
5716 5715 5714 5714 5713 5712 5711 5710 5709 5708 5707 5706 5706 5706 5706 5706 5707 5707 5708 5709 5709 5709 5708 5708 5708 5709 5708 5708 5708 5708 5707 5707 5706 5705 5705 5704 5703 5702 5701 5700 5699 5698 5697
5706 5705 5705 5704 5703 5702 5701 5700 5699 5699 5698 5697 5696 5696 5695 5696 5696 5696 5696 5696 5696 5696 5696 5696 5696 5696 5695 5695 5695 5695 5694 5694 5693 5693 5692 5691 5690 5689 5688 5687 5686 5684 5683
5697 5696 5695 5695 5694 5693 5692 5691 5690 5689 5688 5688 5687 5686 5685 5685 5685 5685 5684 5684 5684 5685 5684 5684 5684 5683 5683 5683 5683 5682 5682 5681 5680 5680 5679 5678 5677 5675 5674 5673 5672 5671 5669
5689 5688 5687 5686 5685 5684 5682 5681 5680 5680 5679 5678 5677 5676 5675 5675 5674 5674 5673 5673 5673 5673 5673 5673 5672 5672 5671 5671 5670 5669 5669 5668 5667 5666 5665 5664 5663 5662 5660 5659 5658 5657 5655
5680 5679 5678 5677 5676 5674 5673 5672 5671 5670 5669 5668 5667 5666 5665 5664 5664 5663 5663 5662 5661 5661 5661 5662 5661 5660 5659 5659 5658 5657 5656 5654 5654 5653 5651 5650 5649 5648 5646 5645 5644 5643 5641
5672 5671 5669 5668 5666 5665 5663 5662 5661 5660 5659 5658 5657 5656 5656 5655 5654 5653 5652 5651 5651 5650 5649 5649 5648 5648 5647 5646 5645 5644 5643 5641 5641 5639 5638 5636 5635 5633 5632 5631 5630 5628 5627
5664 5663 5661 5660 5658 5656 5655 5653 5652 5650 5649 5649 5648 5647 5646 5645 5644 5643 5642 5641 5640 5639 5638 5637 5636 5635 5634 5633 5632 5631 5630 5628 5627 5626 5624 5622 5621 5619 5618 5616 5615 5613 5612
5657 5655 5653 5651 5650 5648 5646 5644 5643 5641 5640 5639 5638 5637 5636 5635 5634 5633 5632 5631 5629 5628 5626 5625 5624 5622 5621 5620 5619 5618 5616 5615 5613 5612 5610 5608 5606 5604 5602 5600 5599 5598 5597
5649 5647 5645 5643 5641 5640 5638 5636 5634 5633 5631 5630 5629 5628 5626 5625 5624 5623 5621 5619 5618 5616 5614 5612 5611 5609 5608 5606 5605 5604 5603 5601 5599 5597 5595 5593 5591 5588 5586 5585 5584 5583 5581
5641 5639 5638 5636 5634 5632 5630 5628 5626 5625 5623 5622 5620 5618 5617 5615 5614 5612 5610 5608 5606 5604 5602 5600 5598 5596 5594 5593 5591 5590 5588 5586 5584 5582 5580 5578 5576 5574 5571 5569 5568 5567 5565
5634 5632 5631 5629 5626 5624 5622 5621 5619 5617 5616 5614 5612 5610 5608 5606 5604 5602 5600 5598 5595 5593 5590 5588 5586 5583 5581 5579 5577 5575 5573 5572 5570 5569 5565 5563 5560 5558 5556 5554 5552 5551 5549
5627 5625 5623 5621 5619 5617 5616 5614 5611 5610 5608 5606 5603 5601 5599 5596 5594 5592 5589 5586 5584 5580 5578 5575 5573 5570 5568 5566 5563 5562 5559 5556 5554 5552 5549 5548 5545 5543 5541 5539 5537 5535 5533
5619 5618 5616 5614 5612 5610 5608 5606 5604 5602 5600 5597 5595 5592 5589 5586 5583 5581 5578 5575 5572 5569 5566 5563 5560 5557 5554 5551 5548 5547 5544 5542 5539 5536 5533 5532 5529 5527 5525 5523 5520 5518 5516
5612 5610 5608 5607 5605 5603 5601 5599 5596 5594 5591 5588 5585 5582 5579 5576 5573 5570 5567 5564 5561 5557 5553 5550 5546 5543 5540 5536 5534 5531 5529 5527 5524 5521 5517 5515 5513 5511 5509 5506 5503 5501 5499
5604 5603 5601 5599 5597 5595 5593 5591 5588 5585 5582 5579 5576 5573 5570 5566 5563 5559 5556 5553 5549 5545 5542 5538 5534 5530 5526 5522 5519 5516 5514 5511 5508 5506 5502 5499 5497 5493 5493 5490 5487 5484 5482
Wind_Speed
34 35 35 35 35 35 35 35 35 35 35 35 35 35 35 34 34 34 34 34 34 34 33 33 33 33 33 33 33 33 33 33 33 33 32 32 32 33 32 32 32 32 32
35 36 36 36 36 37 37 37 37 38 38 38 37 37 37 37 37 36 36 36 36 36 36 36 36 35 35 35 35 35 35 35 34 34 34 34 34 34 34 34 34 34 33
38 38 38 38 38 38 39 39 39 39 39 40 40 40 40 39 39 39 39 39 39 39 39 38 38 38 38 38 37 37 36 36 36 36 36 36 36 36 36 36 36 36 35
41 41 41 40 40 40 40 41 41 41 41 42 42 42 42 42 42 41 41 40 40 40 40 40 40 40 40 39 39 39 38 37 37 37 37 37 38 38 38 38 37 36 36
42 42 42 42 42 42 43 43 44 43 43 43 43 43 44 44 44 43 43 43 43 42 42 42 42 42 42 41 40 40 39 39 39 39 39 39 39 39 39 39 39 38 37
43 43 44 44 44 43 44 45 45 44 45 45 46 46 46 46 45 45 45 45 45 44 44 44 43 43 43 43 42 41 41 41 41 41 41 41 41 40 40 39 39 39 39
44 44 44 44 45 45 45 45 46 46 46 46 47 48 48 47 46 46 47 46 46 45 44 44 44 44 43 43 42 42 42 43 42 43 43 42 41 41 41 40 40 40 40
45 45 45 45 45 45 46 47 47 47 48 48 48 49 49 48 48 48 47 46 46 46 45 44 44 43 42 42 43 43 43 43 42 42 42 42 42 43 43 42 42 42 42
43 43 43 45 46 46 46 47 48 49 49 49 48 49 49 49 49 48 48 47 46 46 46 47 46 45 44 44 44 44 44 43 43 43 43 43 43 44 45 44 43 43 43
41 41 42 43 44 45 45 46 46 47 48 48 48 47 47 48 48 48 48 48 47 47 47 47 47 47 46 46 46 46 46 46 45 45 45 45 45 45 45 45 45 45 45
39 40 40 41 42 42 43 44 45 45 45 46 47 47 47 48 48 48 48 49 49 49 49 49 50 49 49 49 49 49 48 48 47 47 47 47 48 47 46 46 47 47 47
38 39 40 40 40 41 41 42 42 43 43 44 45 46 47 48 48 49 49 49 50 50 50 50 51 50 50 50 50 50 50 50 49 50 49 48 49 49 49 49 48 49 49
38 38 38 38 39 40 40 41 41 42 42 43 44 45 46 48 48 48 49 48 48 48 49 49 49 49 49 49 49 51 52 51 50 51 50 50 50 50 50 50 49 49 50
36 36 37 37 37 38 39 40 41 41 42 42 43 44 46 46 45 45 46 47 47 47 46 46 46 47 48 48 49 51 51 51 51 51 52 51 51 50 49 49 49 49 50
34 36 36 37 37 37 37 38 40 40 40 40 41 42 42 42 43 43 43 44 46 48 47 46 47 47 48 49 50 51 52 52 51 51 52 51 50 50 50 50 50 50 50
34 34 36 36 37 37 37 38 38 39 40 40 39 39 39 40 41 42 43 44 45 47 48 48 48 47 48 49 50 51 50 50 51 51 51 50 50 51 51 50 50 51 51
32 32 33 34 34 35 35 36 37 37 38 38 38 38 39 39 40 41 43 43 44 45 46 47 48 48 49 49 49 49 49 49 49 49 50 51 51 51 51 51 51 51 51
30 31 32 32 33 33 33 34 35 35 35 36 37 38 38 39 40 41 41 42 43 44 45 45 47 48 48 49 49 49 49 49 49 50 51 51 51 52 52 51 51 51 51
30 30 30 30 31 32 32 33 34 34 34 34 35 36 37 38 39 40 41 42 43 44 45 46 47 47 47 48 49 49 49 50 50 51 51 51 51 52 53 52 52 51 51
29 28 28 29 29 30 31 31 31 31 32 32 33 34 35 36 37 39 40 42 43 43 44 45 45 45 46 47 48 48 49 49 49 51 51 51 52 52 53 52 52 51 51
27 27 27 27 26 27 27 28 28 29 30 31 32 33 33 34 36 38 39 41 41 43 44 46 46 45 46 46 47 48 49 49 50 51 51 51 52 52 52 52 52 51 51
26 26 26 26 25 26 26 27 27 28 29 30 31 32 33 33 35 36 37 39 42 44 45 45 45 46 47 47 48 49 50 51 51 52 52 52 52 52 52 51 52 53 53
25 26 26 26 26 26 27 27 28 28 29 30 31 32 33 34 36 37 38 39 41 42 43 44 45 47 47 48 49 49 51 51 51 51 52 52 52 52 52 52 52 52 53
26 27 27 27 26 27 27 27 28 28 29 30 31 32 33 34 35 37 37 38 39 40 42 43 44 45 46 47 48 48 48 49 50 51 52 52 53 53 53 54 54 54 53
26 27 27 27 27 27 28 28 28 29 30 31 32 33 33 34 35 36 37 38 39 40 41 42 43 44 45 46 47 48 49 50 50 51 52 52 53 54 54 54 54 54 53
26 27 27 28 28 28 28 29 29 30 31 32 33 33 34 35 35 37 38 39 39 40 41 42 43 44 44 46 47 48 49 50 51 51 52 52 52 53 53 52 52 52 51
Wind_Direction
263 264 264 264 264 265 265 265 265 265 266 266 267 267 267 267 267 267 267 267 267 268 269 271 273 274 275 275 276 277 278 279 279 280 280 280 281 282 282 282 282 281 282
264 265 265 265 265 265 265 265 265 266 266 266 266 267 268 268 268 267 267 268 268 268 269 271 272 274 275 275 276 277 277 278 278 279 279 280 281 281 281 282 281 281 281
266 265 265 266 266 265 265 266 266 266 266 266 266 267 267 268 268 268 268 268 268 269 270 271 272 273 274 275 276 276 277 277 277 278 279 281 281 281 281 280 280 280 280
267 267 266 266 266 266 267 267 267 266 266 266 266 267 267 268 268 267 268 268 269 269 270 271 271 272 273 274 274 275 275 275 277 278 278 279 280 280 280 279 279 279 279
267 266 266 266 266 267 268 268 268 267 267 266 266 266 267 268 267 267 267 268 269 269 270 272 272 272 273 273 274 274 274 275 276 277 277 278 279 279 279 278 278 278 278
266 267 267 267 267 267 268 269 268 268 268 267 267 267 267 267 267 267 267 268 269 269 270 272 272 272 273 273 273 273 274 275 275 276 277 278 278 278 278 277 277 277 278
266 267 267 267 268 268 268 268 269 269 268 268 268 267 266 266 267 268 268 268 268 269 271 271 272 272 273 273 274 274 275 275 276 276 277 277 277 278 277 276 276 277 278
267 266 267 267 267 267 267 267 268 269 269 269 269 268 266 266 266 267 267 267 268 268 268 270 271 272 272 273 273 274 275 275 275 276 276 276 275 275 275 275 276 276 277
267 267 267 267 268 267 268 268 268 268 269 269 269 269 267 265 265 265 266 267 268 268 268 269 270 271 271 271 272 273 273 274 274 275 275 276 277 275 274 273 274 275 276
268 267 267 268 268 269 268 269 269 269 268 267 267 268 268 267 265 263 264 265 267 268 268 267 269 269 270 271 272 272 273 273 273 273 274 275 276 276 275 273 274 274 275
269 269 269 270 270 270 270 271 271 270 269 268 266 266 267 267 266 265 264 265 267 268 268 268 269 269 270 271 272 272 272 272 273 273 274 274 275 275 275 275 275 274 274
271 272 272 272 273 272 272 272 271 271 270 269 268 266 266 266 265 266 267 267 268 268 268 268 269 268 269 270 271 271 273 273 273 273 273 274 275 275 275 275 275 274 272
272 273 273 274 274 274 273 272 271 271 271 271 269 267 266 266 266 267 267 268 268 268 268 268 269 268 270 271 271 271 272 273 274 274 274 275 275 275 275 275 275 274 271
273 272 273 274 274 275 274 272 272 272 272 272 271 269 267 267 267 269 268 268 267 267 268 269 268 268 270 271 272 272 272 272 273 275 276 276 276 275 275 275 275 275 273
275 275 275 275 275 275 275 273 272 272 271 272 272 271 269 268 267 269 270 269 269 268 269 269 269 270 271 272 272 273 273 273 274 275 276 277 278 277 276 276 276 276 275
277 276 276 277 277 277 276 275 273 272 271 272 272 271 270 269 269 270 271 272 271 270 270 269 270 270 271 272 273 274 274 274 274 275 277 277 277 278 277 276 276 276 275
279 279 279 279 279 279 277 276 275 274 274 274 272 271 269 268 268 270 271 271 271 272 272 271 272 271 271 272 272 273 275 275 275 276 277 278 277 277 277 276 276 275 275
281 281 281 280 280 279 278 278 276 276 275 274 273 272 272 271 270 270 271 272 272 273 274 275 274 273 272 272 272 272 274 275 276 277 278 279 277 277 277 277 276 276 275
282 283 282 281 280 279 279 279 279 278 276 276 276 275 274 273 272 272 273 274 274 275 276 277 277 275 274 273 273 273 274 275 276 277 278 279 278 278 278 277 275 276 275
281 283 283 283 283 282 281 281 280 279 279 279 279 278 277 277 276 275 276 276 276 276 276 278 278 276 276 275 275 275 275 275 276 277 278 278 279 278 277 277 276 276 275
280 282 284 284 283 284 284 283 281 280 280 281 281 280 280 280 279 279 279 279 279 279 278 278 278 277 277 277 276 276 276 276 277 277 278 278 278 278 277 277 277 277 276
282 283 283 285 284 284 285 284 283 282 282 282 281 281 281 281 282 282 282 282 282 281 281 280 279 279 279 278 277 277 279 279 279 278 277 277 277 277 278 278 278 278 278
282 283 283 285 284 284 285 286 286 285 285 285 284 284 284 283 284 284 284 285 286 285 283 282 280 280 280 280 279 280 280 280 279 278 278 277 277 277 278 279 279 278 278
282 282 283 285 284 284 286 287 287 288 289 288 288 287 287 286 285 286 286 287 288 287 286 285 284 283 282 281 281 280 280 280 280 279 279 278 278 278 278 279 279 279 278
284 283 283 284 285 286 288 289 289 289 290 290 290 289 288 288 288 288 288 288 289 289 289 287 287 286 285 283 281 281 281 281 281 281 281 280 279 278 279 279 278 278 277
285 286 284 284 286 287 288 290 291 290 290 291 291 290 290 290 290 291 291 291 291 292 292 291 290 289 288 286 284 283 284 284 283 282 282 281 281 280 279 279 278 277 276